Location: ???????????
(55.5758°N, 38.4970°E)
Time: 13:26:00
(UTC+00:00)

Cosmos 2369 Rocket - Visible Passes

Search period start: 14 February 2026 00:00
Search period end: 24 February 2026 00:00
Orbit: 826 x 853 km, 71.0° (Epoch: 13 February)

Date Brightness Start Highest point End Pass type
(mag) Time Alt. Az. Time Alt. Az. Time Alt. Az.
14 Feb 3.6 01:49:46 25° NNW 01:49:46 25° NNW 01:54:25 10° NNE visible
14 Feb 4.1 03:32:06 10° NW 03:35:47 17° N 03:39:28 10° NE visible
14 Feb 4.2 23:52:33 23° NNE 23:52:33 23° NNE 23:54:40 10° NNE visible
15 Feb 3.6 01:34:18 26° NNW 01:34:18 26° NNW 01:38:40 10° NNE visible
15 Feb 4.1 03:16:17 10° NW 03:19:59 17° N 03:23:39 10° NE visible
15 Feb 4.4 23:37:05 21° NNE 23:37:05 21° NNE 23:38:55 10° NNE visible
16 Feb 3.7 01:18:50 26° NNW 01:18:50 26° NNW 01:22:55 10° NNE visible
16 Feb 4.2 03:00:35 10° NW 03:04:09 17° N 03:07:50 10° NE visible
16 Feb 4.5 23:21:36 19° NNE 23:21:36 19° NNE 23:23:11 10° NNE visible
17 Feb 3.7 01:03:21 26° NNW 01:03:21 26° NNW 01:07:10 10° NNE visible
17 Feb 4.2 02:45:06 11° NW 02:48:21 17° N 02:52:02 10° NE visible
17 Feb 4.6 23:06:06 18° NNE 23:06:06 18° NNE 23:07:27 10° NNE visible
18 Feb 3.8 00:47:51 25° N 00:47:51 25° N 00:51:26 10° NNE visible
18 Feb 4.2 02:29:36 12° NW 02:32:32 17° N 02:36:14 10° NE visible
18 Feb 4.7 22:50:35 16° NNE 22:50:35 16° NNE 22:51:42 10° NNE visible
19 Feb 3.9 00:32:20 25° N 00:32:20 25° N 00:35:41 10° NNE visible
19 Feb 4.2 02:14:05 13° NW 02:16:43 17° N 02:20:26 10° NE visible
19 Feb 4.1 03:58:33 10° NNW 04:02:54 22° NNE 04:07:12 10° ENE visible
19 Feb 4.8 22:35:04 15° NNE 22:35:04 15° NNE 22:35:58 10° NE visible
20 Feb 4.0 00:16:49 25° N 00:16:49 25° N 00:19:57 10° NNE visible
20 Feb 4.2 01:58:34 14° NW 02:00:54 17° N 02:04:38 10° NE visible
20 Feb 4.1 03:42:48 10° NNW 03:47:06 21° NNE 03:51:22 10° ENE visible
20 Feb 4.9 22:19:32 14° NE 22:19:32 14° NE 22:20:13 10° NE visible
21 Feb 4.1 00:01:17 24° N 00:01:17 24° N 00:04:13 10° NNE visible
21 Feb 4.2 01:43:02 15° NNW 01:45:06 18° N 01:48:51 10° NE visible
21 Feb 4.1 03:27:03 10° NNW 03:31:17 21° NNE 03:35:31 10° ENE visible
21 Feb 4.9 22:04:00 13° NE 22:04:00 13° NE 22:04:29 10° NE visible
21 Feb 4.2 23:45:44 23° N 23:45:44 23° N 23:48:28 10° NNE visible
22 Feb 4.2 01:27:29 15° NNW 01:29:17 18° N 01:33:03 10° NNE visible
22 Feb 4.2 03:11:17 10° NNW 03:15:29 20° NNE 03:19:39 10° ENE visible
22 Feb 5.0 21:48:26 12° NE 21:48:26 12° NE 21:48:45 10° NE visible
22 Feb 4.2 23:30:12 22° N 23:30:12 22° N 23:32:43 10° NNE visible
23 Feb 4.2 01:11:56 16° NNW 01:13:28 18° N 01:17:16 10° NNE visible
23 Feb 4.2 02:55:32 10° NNW 02:59:41 20° NNE 03:03:49 10° ENE visible
23 Feb 5.0 21:32:53 11° NE 21:32:53 11° NE 21:32:59 10° NE visible
23 Feb 4.3 23:14:37 22° N 23:14:37 22° N 23:17:00 10° NNE visible
